User: anonymous   Login
Location: Angwan Shehu
(11.2514°N, 7.4613°E)
Time: 05:37:34
(UTC+00:00)
Language:

Courier 1B - Orbit

View from above orbital plane
View from above orbital plane
View from above satellite
View from above satellite

Ground track
Ground track

The orbit data is extracted from the following two-line orbital elements,

1    58U 60013A   21102.76763754  .00000092  00000-0  13754-4 0  9999
2    58  28.3291  16.1277 0164900  27.3414 333.5701 13.46325890979519
Epoch (UTC): 12 April 2021 18:25:23
Eccentricity: 0.0164900
inclination: 28.3291°
perigee height: 963 km
apogee height: 1209 km
right ascension of ascending node: 16.1277°
argument of perigee: 27.3414°
revolutions per day: 13.46325890
mean anomaly at epoch: 333.5701°
orbit number at epoch: 97951

The dashed part of the orbit path shows where the satellite is in the earth's shadow,  

DLR